{"data":{"norad_id":45538,"epoch":"2026-05-25T04:58:53.184000Z","epoch_age_seconds":57870,"freshness":"FRESH","line1":"1 45538U 20025H   26145.20756000 -.00103384  00000+0 -29738-2 0  9993","line2":"2 45538  53.1577 104.1896 0003324 102.2364 257.9012 15.35599058336912","mean_motion":15.35599058,"eccentricity":0.0003324,"inclination_deg":53.1577,"raan_deg":104.1896,"arg_perigee_deg":102.2364,"mean_anomaly_deg":257.9012,"bstar":-0.0029738,"rev_number":33691,"period_min":93.774477947094,"perigee_km":456.86899490115,"apogee_km":461.41441778512,"semimajor_km":6837.2787063431,"source":"CELESTRAK","updated_at":"2026-05-25T13:38:16.421379Z"}}